Regional Weather Roundup
Issued by NWS

Home | Current Version | Previous Version | Graphics & Text | Print | Product List | Glossary On
Versions: 1 2 3 4 5 6 7 8 9 10 11 12 13 14 15 16 17 18 19 20 21 22 23 24 25 26 27 28 29 30 31 32 33 34 35 36 37 38 39 40 41 42 43 44 45 46 47 48 49 50
000
ASUS43 KFSD 191702
RWRSD

WEATHER ROUNDUP FOR SOUTH DAKOTA
NATIONAL WEATHER SERVICE SIOUX FALLS SD
1100 AM CST FRI DEC 19 2014

NOTE: "FAIR" INDICATES FEW OR NO CLOUDS BELOW 12,000 FEET WITH NO
SIGNIFICANT WEATHER AND/OR OBSTRUCTIONS TO VISIBILITY.


SDZ001>005-009-010-012>017-191800-
NORTHWEST AND NORTH CENTRAL SOUTH DAKOTA

CITY           SKY/WX    TMP DP  RH WIND       PRES   REMARKS
BUFFALO          N/A     33  25  72 W7        29.89R WCI  27
FAITH            N/A     34  27  75 W6        29.96F WCI  29
MOBRIDGE       MOSUNNY   26  23  88 S9        29.96F WCI  17
$$

SDZ012>016-024>037-041>051-057-063-072>074-191800-
SOUTHWEST AND SOUTH CENTRAL SOUTH DAKOTA

CITY           SKY/WX    TMP DP  RH WIND       PRES   REMARKS
RAPID CTY ARPT SUNNY     41  23  48 W3        29.98S
PIERRE         PTSUNNY   21  19  92 S3        30.02S
CUSTER         SUNNY     36  19  50 CALM      29.97R
ELLSWORTH AFB  MOSUNNY   41  23  49 SW6       29.97S
PHILIP         MOSUNNY   33  25  72 W7        30.01R WCI  27
PINE RIDGE     SUNNY     33  19  56 W13       30.02R WCI  24
WINNER         FAIR      28  18  66 SW7       30.03F WCI  21
$$

SDZ004>011-016>023-039-040-191800-
NORTHEAST SOUTH DAKOTA

CITY           SKY/WX    TMP DP  RH WIND       PRES   REMARKS
ABERDEEN       CLOUDY    29  26  89 S14       30.05F FOG     WCI  18
WATERTOWN      CLOUDY    27  25  92 S16       30.07S FOG     WCI  15
SISSETON         N/A     30  28  92 SW10      30.07S WCI  21
$$

SDZ017-020-022-023-036>040-048>070-191800-
SOUTHEAST SOUTH DAKOTA

CITY           SKY/WX    TMP DP  RH WIND       PRES   REMARKS
SIOUX FALLS    CLOUDY    30  27  88 S14       30.14F WCI  19
HURON          CLOUDY    28  26  92 S13G22    30.08F FOG     WCI  17
MITCHELL       CLOUDY    29  28  96 S14       30.11F FOG     WCI  18
YANKTON        CLOUDY    30  27  86 S10       30.15F WCI  21
$$

ABBREVIATIONS USED IN REMARKS
   TC - TEMPERATURE IN CELSIUS
  WCI - WIND CHILL INDEX
   HX - HEAT INDEX
  VSB - VISIBILITY



USA.gov is the U.S. government's official web portal to all federal, state and local government web resources and services.